FW2116 Weather Reports


time (UTC)temp
C
wind
direction
speed
KPH
gust
KPH
rain 1hr
cm
rain 24hr
cm
rain mn
cm
humidity
%
barometer
mb
20260503213008 32 233 1.6 4.8 0.00 0.00 0.00 30 1008.6
20260503212510 32 117 0.0 4.8 0.00 0.00 0.00 32 1008.7
20260503212004 31 143 0.0 6.4 0.00 0.00 0.00 32 1008.9
20260503211505 31 134 1.6 6.4 0.00 0.00 0.00 32 1008.9
20260503211003 31 121 1.6 8.0 0.00 0.00 0.00 34 1008.9
20260503210503 31 82 0.0 8.0 0.00 0.00 0.00 34 1009.0
20260503210003 31 310 0.0 8.0 0.00 0.00 0.00 37 1009.0
20260503205504 31 319 3.2 8.0 0.00 0.00 0.00 34 1009.2
20260503205002 31 228 0.0 4.8 0.00 0.00 0.00 35 1009.2
20260503204600 31 324 1.6 6.4 0.00 0.00 0.00 34 1009.2
20260503204100 31 104 0.0 8.0 0.00 0.00 0.00 38 1009.2
20260503203558 30 258 0.0 8.0 0.00 0.00 0.00 37 1009.3
20260503203057 30 244 0.0 6.4 0.00 0.00 0.00 39 1009.4
20260503202556 30 21 1.6 6.4 0.00 0.00 0.00 40 1009.5
20260503202056 30 100 1.6 6.4 0.00 0.00 0.00 42 1009.6
20260503201553 30 253 1.6 6.4 0.00 0.00 0.00 40 1009.7
20260503201051 29 309 1.6 6.4 0.00 0.00 0.00 42 1009.7
20260503200551 29 35 1.6 12.9 0.00 0.00 0.00 45 1009.8
20260503200058 29 359 4.8 12.9 0.00 0.00 0.00 44 1009.8
20260503195548 29 313 1.6 11.3 0.00 0.00 0.00 47 1010.0
20260503195048 28 266 3.2 9.7 0.00 0.00 0.00 47 1010.1
20260503194546 28 313 1.6 9.7 0.00 0.00 0.00 46 1010.1
20260503194045 28 113 0.0 9.7 0.00 0.00 0.00 47 1010.2
20260503193545 27 291 3.2 9.7 0.00 0.00 0.00 45 1010.2
20260503193055 28 271 3.2 9.7 0.00 0.00 0.00 47 1010.2
20260503192541 27 311 1.6 9.7 0.00 0.00 0.00 48 1010.2
20260503192041 27 237 1.6 8.0 0.00 0.00 0.00 49 1010.3
20260503191544 27 238 1.6 9.7 0.00 0.00 0.00 48 1010.3
20260503191039 27 244 1.6 9.7 0.00 0.00 0.00 52 1010.3
20260503190538 26 249 3.2 9.7 0.00 0.00 0.00 51 1010.5
20260503190036 26 283 0.0 6.4 0.00 0.00 0.00 52 1010.5
20260503185535 26 247 0.0 9.7 0.00 0.00 0.00 54 1010.6
20260503185035 26 47 3.2 0.0 0.00 0.00 0.00 55 1010.6
20260503184541 25 295 1.6 6.4 0.00 0.00 0.00 55 1010.8
20260503184033 25 341 1.6 8.0 0.00 0.00 0.00 56 1010.9
20260503183532 25 335 1.6 8.0 0.00 0.00 0.00 56 1010.9
20260503183031 25 316 3.2 8.0 0.00 0.00 0.00 56 1010.9
20260503182531 25 310 1.6 4.8 0.00 0.00 0.00 58 1011.0
20260503182032 24 352 1.6 4.8 0.00 0.00 0.00 58 1011.0
20260503181527 23 348 0.0 6.4 0.00 0.00 0.00 60 1011.1
20260503181025 23 316 1.6 6.4 0.00 0.00 0.00 59 1011.2
20260503180524 23 16 1.6 4.8 0.00 0.00 0.00 62 1011.2
20260503180041 23 308 0.0 4.8 0.00 0.00 0.00 62 1011.4
20260503175521 23 304 1.6 4.8 0.00 0.00 0.00 63 1011.3
20260503175019 22 349 0.0 4.8 0.00 0.00 0.00 63 1011.3
20260503174524 22 232 0.0 4.8 0.00 0.00 0.00 64 1011.4
20260503174017 22 212 0.0 6.4 0.00 0.00 0.00 65 1011.4
20260503173516 22 285 3.2 6.4 0.00 0.00 0.00 65 1011.5
20260503173020 21 269 3.2 6.4 0.00 0.00 0.00 65 1011.5
20260503172513 21 219 0.0 4.8 0.00 0.00 0.00 66 1011.6
20260503172011 21 108 0.0 6.4 0.00 0.00 0.00 68 1011.6
20260503171511 20 357 0.0 6.4 0.00 0.00 0.00 68 1011.6
20260503171012 20 282 1.6 6.4 0.00 0.00 0.00 68 1011.8
20260503170509 20 272 1.6 4.8 0.00 0.00 0.00 68 1011.7
20260503150543 14 112 0.0 0.0 0.00 0.00 0.00 85 1012.3
20260503131036 10 120 0.0 1.6 0.00 0.00 0.00 92 1012.0
20260503130536 10 203 0.0 0.0 0.00 0.00 0.00 91 1011.9
20260503110523 11 61 0.0 1.6 0.00 0.00 0.00 91 1012.1
20260503090510 12 304 0.0 0.0 0.00 0.03 0.00 87 1012.4
20260503081512 13 304 0.0 0.0 0.00 0.03 0.00 85 1012.4
20260503081002 13 304 0.0 0.0 0.00 0.03 0.00 85 1012.3
20260503080501 13 304 0.0 0.0 0.00 0.03 0.00 84 1012.4
20260503080108 13 304 0.0 0.0 0.00 0.03 0.00 84 1012.4
20260503072556 15 304 0.0 0.0 0.00 0.03 0.00 82 1012.6
20260503072054 15 304 0.0 0.0 0.00 0.03 0.00 82 1012.6
20260503071600 15 304 0.0 0.0 0.00 0.03 0.00 81 1012.5
20260503071055 15 304 0.0 0.0 0.00 0.03 0.00 81 1012.5
20260503070551 15 304 0.0 0.0 0.00 0.03 0.00 81 1012.6
20260503055051 16 92 0.0 0.0 0.00 0.03 0.03 78 1012.1
20260503054548 16 92 0.0 1.6 0.00 0.03 0.03 77 1012.2
20260503054047 16 92 0.0 1.6 0.00 0.03 0.03 77 1012.3
20260503053547 16 101 0.0 1.6 0.00 0.03 0.03 77 1012.5
20260503053047 16 116 0.0 1.6 0.00 0.03 0.03 77 1012.5
20260503052546 16 116 0.0 0.0 0.00 0.03 0.03 77 1012.6
20260503052048 16 116 0.0 0.0 0.00 0.03 0.03 77 1012.6
20260503051547 17 116 0.0 0.0 0.00 0.03 0.03 76 1012.8
20260503051046 17 116 0.0 0.0 0.00 0.03 0.03 76 1012.7
20260503050548 17 116 0.0 0.0 0.00 0.03 0.03 76 1012.8
20260503050046 17 116 0.0 0.0 0.00 0.03 0.03 76 1012.8
20260503045545 17 116 0.0 0.0 0.00 0.03 0.03 76 1012.8
20260503045045 17 116 0.0 0.0 0.00 0.03 0.03 75 1012.8
20260503044547 17 116 0.0 0.0 0.00 0.03 0.03 75 1012.8
20260503044045 17 116 0.0 0.0 0.00 0.03 0.03 75 1012.7
20260503043546 17 116 0.0 0.0 0.00 0.03 0.03 75 1012.6
20260503043045 17 116 0.0 0.0 0.00 0.03 0.03 74 1012.7
20260503042545 17 116 0.0 0.0 0.00 0.03 0.03 74 1012.8
20260503042044 17 116 0.0 0.0 0.00 0.03 0.03 74 1012.7
20260503041544 17 116 0.0 0.0 0.00 0.03 0.03 74 1012.8
20260503041043 17 116 0.0 0.0 0.00 0.03 0.03 73 1012.7
20260503040543 17 116 0.0 0.0 0.00 0.03 0.03 73 1012.7
20260503040048 17 116 0.0 0.0 0.00 0.03 0.03 72 1012.7
20260503035544 18 116 0.0 1.6 0.00 0.03 0.03 72 1012.7
20260503035044 18 131 0.0 0.0 0.00 0.03 0.03 72 1012.6
20260503034543 18 131 0.0 0.0 0.00 0.03 0.03 71 1012.6
20260503034044 18 131 0.0 0.0 0.00 0.03 0.03 71 1012.6
20260503033543 18 131 0.0 6.4 0.00 0.03 0.03 71 1012.5
20260503033043 18 134 1.6 6.4 0.00 0.03 0.03 70 1012.5
20260503032543 18 141 0.0 8.0 0.00 0.03 0.03 70 1012.4
20260503032042 18 102 0.0 9.7 0.00 0.03 0.03 70 1012.4
20260503031543 18 139 1.6 9.7 0.00 0.03 0.03 69 1012.4
20260503031042 19 169 0.0 14.5 0.00 0.03 0.03 69 1012.5
20260503030543 19 236 1.6 14.5 0.00 0.03 0.03 68 1012.2
20260503030059 20 152 3.2 14.5 0.00 0.03 0.03 68 1012.2
20260503025543 20 152 1.6 14.5 0.00 0.03 0.03 66 1012.1
20260503025142 21 131 3.2 16.1 0.00 0.03 0.03 66 1012.0
20260503024542 21 152 3.2 16.1 0.00 0.03 0.03 64 1011.8
20260503024041 22 117 1.6 9.7 0.00 0.03 0.03 63 1011.8
20260503023540 22 131 1.6 14.5 0.00 0.03 0.03 62 1011.5
20260503023041 22 162 3.2 16.1 0.00 0.03 0.03 61 1011.6
20260503022540 22 212 6.4 16.1 0.00 0.03 0.03 61 1011.7
20260503022039 23 161 3.2 11.3 0.00 0.03 0.03 60 1011.5
20260503021541 23 212 4.8 11.3 0.00 0.03 0.03 60 1011.3
20260503021039 23 151 3.2 9.7 0.00 0.03 0.03 61 1011.2
20260503020539 22 154 3.2 8.0 0.00 0.03 0.03 61 1011.2
20260503020039 23 133 3.2 8.0 0.00 0.03 0.03 60 1011.0
20260503015539 23 134 3.2 11.3 0.00 0.03 0.03 60 1011.0
20260503015039 24 164 3.2 8.0 0.00 0.03 0.03 58 1011.0
20260503014547 24 116 0.0 1.6 0.00 0.03 0.03 58 1010.9
20260503014038 25 266 0.0 1.6 0.00 0.03 0.03 58 1010.9
20260503013538 24 266 0.0 1.6 0.00 0.03 0.03 58 1010.8
20260503013038 24 266 0.0 3.2 0.00 0.03 0.03 58 1010.8
20260503012538 24 284 0.0 3.2 0.00 0.03 0.03 57 1010.8
20260503012037 24 250 0.0 4.8 0.00 0.03 0.03 58 1010.9
20260503011547 24 259 1.6 4.8 0.00 0.03 0.03 58 1010.8
20260503011037 24 274 0.0 4.8 0.00 0.03 0.03 57 1010.8
20260503010536 25 275 0.0 4.8 0.00 0.03 0.03 57 1010.8
20260503010035 24 105 0.0 4.8 0.00 0.03 0.03 58 1010.9
20260503005538 24 106 0.0 4.8 0.00 0.03 0.03 58 1010.9
20260503005035 25 37 0.0 3.2 0.00 0.03 0.03 58 1010.9
20260503004533 24 229 0.0 3.2 0.00 0.03 0.03 58 1010.9
20260503004033 23 143 0.0 3.2 0.00 0.03 0.03 59 1011.0
20260503003532 23 113 1.6 8.0 0.00 0.03 0.03 59 1010.9
20260503003032 23 269 0.0 8.0 0.00 0.03 0.03 59 1010.9
20260503002534 23 246 1.6 8.0 0.00 0.03 0.03 59 1011.0
20260503002032 23 257 1.6 8.0 0.00 0.03 0.03 59 1011.0
20260503001530 23 296 0.0 9.7 0.00 0.03 0.03 59 1011.0
20260503001028 23 243 3.2 9.7 0.00 0.03 0.03 59 1011.0
20260503000527 23 217 3.2 9.7 0.00 0.03 0.03 60 1010.9
20260503000032 23 7 1.6 8.0 0.00 0.03 0.03 60 1011.1
20260502235526 23 275 1.6 6.4 0.00 0.03 0.03 60 1011.1
20260502235029 23 36 1.6 6.4 0.00 0.03 0.03 60 1011.2
20260502234525 23 245 1.6 6.4 0.00 0.03 0.03 60 1011.2
20260502234024 23 323 1.6 8.0 0.00 0.03 0.03 60 1011.2
20260502233523 23 76 1.6 8.0 0.00 0.03 0.03 61 1011.3
20260502233022 22 267 3.2 9.7 0.00 0.03 0.03 61 1011.2
20260502232521 22 305 0.0 6.4 0.00 0.03 0.03 62 1011.3
20260502232020 22 251 3.2 9.7 0.00 0.03 0.03 61 1011.3
20260502231519 22 290 4.8 9.7 0.00 0.03 0.03 60 1011.5
20260502231018 22 58 0.0 6.4 0.00 0.03 0.03 61 1011.6
20260502230517 22 319 0.0 4.8 0.00 0.03 0.03 61 1011.7
20260502230016 22 354 1.6 4.8 0.00 0.03 0.03 60 1011.8
20260502225517 22 102 0.0 9.7 0.00 0.03 0.03 62 1011.8
20260502225014 22 246 1.6 9.7 0.00 0.03 0.03 61 1012.0
20260502224514 22 285 1.6 8.0 0.00 0.03 0.03 61 1012.1
20260502224012 21 321 1.6 9.7 0.00 0.03 0.03 62 1012.2
20260502223511 21 115 0.0 9.7 0.00 0.03 0.03 63 1012.1
20260502223013 21 287 0.0 6.4 0.00 0.03 0.03 63 1012.2
20260502222510 21 289 0.0 8.0 0.00 0.03 0.03 62 1012.3
20260502222007 21 96 0.0 8.0 0.00 0.03 0.03 63 1012.5
20260502221506 21 122 0.0 14.5 0.00 0.03 0.03 63 1012.5
20260502221005 21 256 4.8 14.5 0.00 0.03 0.03 64 1012.6
20260502220504 20 176 0.0 9.7 0.00 0.03 0.03 65 1012.7
20260502220005 20 309 3.2 9.7 0.00 0.03 0.03 64 1012.8
20260502215506 20 275 0.0 11.3 0.00 0.03 0.03 64 1012.9
20260502215002 20 299 3.2 11.3 0.00 0.03 0.03 65 1012.9
20260502214501 20 271 3.2 9.7 0.00 0.03 0.03 65 1013.0
20260502214100 20 276 3.2 6.4 0.00 0.03 0.03 65 1013.0
20260502213558 20 159 1.6 6.4 0.00 0.03 0.03 66 1013.0